Time,TemperatureF,DewpointF,PressureIn,WindDirection,WindDirectionDegrees,WindSpeedMPH,WindSpeedGustMPH,Humidity,HourlyPrecipIn,Conditions,Clouds,dailyrainin,SoftwareType,DateUTC
2013-10-05 00:04:00,62.2,26.0,29.99,SE,132,0.0,0.0,25,0.00,,---,0.00,VWS V14.01,2013-10-05 07:04:00,
2013-10-05 00:09:00,62.1,26.8,29.99,NE,55,0.0,0.0,26,0.00,,---,0.00,VWS V14.01,2013-10-05 07:09:00,
2013-10-05 00:15:00,62.0,25.8,29.99,NE,55,0.0,0.0,25,0.00,,---,0.00,VWS V14.01,2013-10-05 07:15:00,
2013-10-05 00:20:00,62.1,26.8,29.99,NE,56,0.0,0.0,26,0.00,,---,0.00,VWS V14.01,2013-10-05 07:20:00,
2013-10-05 00:25:00,62.1,27.8,29.99,North,355,0.0,0.0,27,0.00,,---,0.00,VWS V14.01,2013-10-05 07:25:00,
2013-10-05 00:30:00,62.0,26.8,29.99,North,351,0.0,0.0,26,0.00,,---,0.00,VWS V14.01,2013-10-05 07:30:00,
2013-10-05 00:35:00,61.8,27.5,30.00,ENE,73,0.0,0.0,27,0.00,,---,0.00,VWS V14.01,2013-10-05 07:35:00,
2013-10-05 00:40:00,61.6,26.4,30.00,NE,53,0.0,0.0,26,0.00,,---,0.00,VWS V14.01,2013-10-05 07:40:00,
2013-10-05 00:45:00,61.2,26.1,30.00,NNW,330,0.0,0.0,26,0.00,,---,0.00,VWS V14.01,2013-10-05 07:45:00,
2013-10-05 00:50:00,60.7,25.6,30.00,NNW,331,0.0,0.0,26,0.00,,---,0.00,VWS V14.01,2013-10-05 07:50:00,
2013-10-05 00:55:00,60.3,26.2,30.00,NNW,331,0.0,0.0,27,0.00,,---,0.00,VWS V14.01,2013-10-05 07:55:00,
2013-10-05 01:00:00,59.9,25.0,30.01,NNW,332,0.0,0.0,26,0.00,,---,0.00,VWS V14.01,2013-10-05 08:00:00,
2013-10-05 01:05:00,59.7,24.8,30.01,ENE,63,0.0,0.0,26,0.00,,---,0.00,VWS V14.01,2013-10-05 08:05:00,
2013-10-05 01:10:00,59.5,24.6,30.01,ENE,61,1.0,0.0,26,0.00,,---,0.00,VWS V14.01,2013-10-05 08:10:00,
2013-10-05 01:15:00,59.0,28.4,30.01,NE,42,0.0,0.0,31,0.00,,---,0.00,VWS V14.01,2013-10-05 08:15:00,
2013-10-05 01:20:00,58.7,26.5,30.01,NE,42,0.0,0.0,29,0.00,,---,0.00,VWS V14.01,2013-10-05 08:20:00,
2013-10-05 01:25:00,58.4,25.5,30.01,NE,43,0.0,0.0,28,0.00,,---,0.00,VWS V14.01,2013-10-05 08:25:00,
2013-10-05 01:30:00,58.4,26.3,30.02,NE,42,0.0,0.0,29,0.00,,---,0.00,VWS V14.01,2013-10-05 08:30:00,
2013-10-05 01:35:00,58.2,26.9,30.02,NNE,30,0.0,0.0,30,0.00,,---,0.00,VWS V14.01,2013-10-05 08:35:00,
2013-10-05 01:40:00,58.1,26.9,30.02,WNW,294,0.0,0.0,30,0.00,,---,0.00,VWS V14.01,2013-10-05 08:40:00,
2013-10-05 01:45:00,57.9,26.7,30.02,WSW,242,0.0,0.0,30,0.00,,---,0.00,VWS V14.01,2013-10-05 08:45:00,
2013-10-05 01:50:00,57.8,26.6,30.02,WSW,240,0.0,0.0,30,0.00,,---,0.00,VWS V14.01,2013-10-05 08:50:00,
2013-10-05 01:55:00,57.7,25.7,30.02,WSW,242,0.0,0.0,29,0.00,,---,0.00,VWS V14.01,2013-10-05 08:55:00,
2013-10-05 02:00:00,57.6,25.6,30.02,WSW,242,0.0,0.0,29,0.00,,---,0.00,VWS V14.01,2013-10-05 09:00:00,
2013-10-05 02:05:00,57.4,25.4,30.02,East,98,0.0,0.0,29,0.00,,---,0.00,VWS V14.01,2013-10-05 09:05:00,
2013-10-05 02:10:00,57.2,26.1,30.02,East,98,0.0,0.0,30,0.00,,---,0.00,VWS V14.01,2013-10-05 09:10:00,
2013-10-05 02:15:00,56.9,25.8,30.02,East,101,0.0,0.0,30,0.00,,---,0.00,VWS V14.01,2013-10-05 09:15:00,
2013-10-05 02:20:00,56.8,25.7,30.02,East,100,0.0,0.0,30,0.00,,---,0.00,VWS V14.01,2013-10-05 09:20:00,
2013-10-05 02:25:00,56.7,27.2,30.02,East,101,0.0,0.0,32,0.00,,---,0.00,VWS V14.01,2013-10-05 09:25:00,
2013-10-05 02:30:00,56.7,26.4,30.02,ESE,107,0.0,0.0,31,0.00,,---,0.00,VWS V14.01,2013-10-05 09:30:00,
2013-10-05 02:35:00,56.6,27.1,30.03,SE,129,0.0,0.0,32,0.00,,---,0.00,VWS V14.01,2013-10-05 09:35:00,
2013-10-05 02:40:00,56.5,27.0,30.03,West,268,0.0,0.0,32,0.00,,---,0.00,VWS V14.01,2013-10-05 09:40:00,
2013-10-05 02:45:00,56.5,26.2,30.02,NW,311,1.0,0.0,31,0.00,,---,0.00,VWS V14.01,2013-10-05 09:45:00,
2013-10-05 02:50:00,56.5,26.2,30.03,SSE,166,0.0,0.0,31,0.00,,---,0.00,VWS V14.01,2013-10-05 09:50:00,
2013-10-05 02:55:00,56.5,25.5,30.03,SSE,167,0.0,0.0,30,0.00,,---,0.00,VWS V14.01,2013-10-05 09:55:00,
2013-10-05 03:00:00,56.4,26.2,30.03,SSE,167,0.0,0.0,31,0.00,,---,0.00,VWS V14.01,2013-10-05 10:00:00,
2013-10-05 03:05:00,56.4,26.2,30.03,SSE,163,0.0,0.0,31,0.00,,---,0.00,VWS V14.01,2013-10-05 10:05:00,
2013-10-05 03:10:00,56.2,25.2,30.03,WSW,255,0.0,0.0,30,0.00,,---,0.00,VWS V14.01,2013-10-05 10:10:00,
2013-10-05 03:16:00,56.1,25.1,30.03,SE,142,0.0,0.0,30,0.00,,---,0.00,VWS V14.01,2013-10-05 10:16:00,
2013-10-05 03:21:00,56.0,25.8,30.03,SE,136,0.0,0.0,31,0.00,,---,0.00,VWS V14.01,2013-10-05 10:21:00,
2013-10-05 03:26:00,56.0,25.0,30.02,SE,136,0.0,0.0,30,0.00,,---,0.00,VWS V14.01,2013-10-05 10:26:00,
2013-10-05 03:31:00,55.9,24.9,30.02,SE,136,0.0,0.0,30,0.00,,---,0.00,VWS V14.01,2013-10-05 10:31:00,
2013-10-05 03:36:00,55.9,24.9,30.02,SE,136,0.0,0.0,30,0.00,,---,0.00,VWS V14.01,2013-10-05 10:36:00,
2013-10-05 03:41:00,56.0,25.0,30.02,SE,136,0.0,0.0,30,0.00,,---,0.00,VWS V14.01,2013-10-05 10:41:00,
2013-10-05 03:46:00,55.9,25.7,30.02,SE,138,0.0,0.0,31,0.00,,---,0.00,VWS V14.01,2013-10-05 10:46:00,
2013-10-05 03:51:00,55.7,25.5,30.03,SE,136,0.0,0.0,31,0.00,,---,0.00,VWS V14.01,2013-10-05 10:51:00,
2013-10-05 03:56:00,55.5,26.1,30.03,SE,136,0.0,0.0,32,0.00,,---,0.00,VWS V14.01,2013-10-05 10:56:00,
2013-10-05 04:01:00,55.3,26.0,30.03,SE,136,0.0,0.0,32,0.00,,---,0.00,VWS V14.01,2013-10-05 11:01:00,
2013-10-05 04:06:00,55.1,25.8,30.03,NW,306,0.0,0.0,32,0.00,,---,0.00,VWS V14.01,2013-10-05 11:06:00,
2013-10-05 04:11:00,54.9,25.6,30.03,ENE,76,0.0,0.0,32,0.00,,---,0.00,VWS V14.01,2013-10-05 11:11:00,
2013-10-05 04:16:00,54.8,26.3,30.03,ESE,107,0.0,0.0,33,0.00,,---,0.00,VWS V14.01,2013-10-05 11:16:00,
2013-10-05 04:21:00,54.7,26.2,30.03,East,97,0.0,0.0,33,0.00,,---,0.00,VWS V14.01,2013-10-05 11:21:00,
2013-10-05 04:26:00,54.6,26.1,30.03,East,98,0.0,0.0,33,0.00,,---,0.00,VWS V14.01,2013-10-05 11:26:00,
2013-10-05 04:31:00,54.6,25.4,30.03,East,93,0.0,0.0,32,0.00,,---,0.00,VWS V14.01,2013-10-05 11:31:00,
2013-10-05 04:36:00,54.5,26.0,30.03,East,92,0.0,0.0,33,0.00,,---,0.00,VWS V14.01,2013-10-05 11:36:00,
2013-10-05 04:41:00,54.5,26.7,30.03,East,92,0.0,0.0,34,0.00,,---,0.00,VWS V14.01,2013-10-05 11:41:00,
2013-10-05 04:46:00,54.4,25.9,30.03,ESE,106,2.0,0.0,33,0.00,,---,0.00,VWS V14.01,2013-10-05 11:46:00,
2013-10-05 04:51:00,54.3,26.5,30.03,East,95,1.0,0.0,34,0.00,,---,0.00,VWS V14.01,2013-10-05 11:51:00,
2013-10-05 04:56:00,54.2,25.7,30.03,East,94,0.0,0.0,33,0.00,,---,0.00,VWS V14.01,2013-10-05 11:56:00,
2013-10-05 05:01:00,54.0,26.3,30.03,ESE,105,0.0,0.0,34,0.00,,---,0.00,VWS V14.01,2013-10-05 12:01:00,
2013-10-05 05:06:00,53.9,27.6,30.03,ESE,117,0.0,0.0,36,0.00,,---,0.00,VWS V14.01,2013-10-05 12:06:00,
2013-10-05 05:11:00,53.7,26.0,30.03,ESE,118,0.0,0.0,34,0.00,,---,0.00,VWS V14.01,2013-10-05 12:11:00,
2013-10-05 05:16:00,53.5,27.2,30.03,ESE,119,0.0,0.0,36,0.00,,---,0.00,VWS V14.01,2013-10-05 12:16:00,
2013-10-05 05:21:00,53.4,27.1,30.03,SE,134,0.0,0.0,36,0.00,,---,0.00,VWS V14.01,2013-10-05 12:21:00,
2013-10-05 05:26:00,53.3,27.0,30.03,SE,134,0.0,0.0,36,0.00,,---,0.00,VWS V14.01,2013-10-05 12:26:00,
2013-10-05 05:31:00,53.2,26.3,30.03,SE,132,0.0,0.0,35,0.00,,---,0.00,VWS V14.01,2013-10-05 12:31:00,
2013-10-05 05:36:00,53.0,26.8,30.03,East,98,1.0,0.0,36,0.00,,---,0.00,VWS V14.01,2013-10-05 12:36:00,
2013-10-05 05:41:00,52.9,26.0,30.04,East,97,0.0,0.0,35,0.00,,---,0.00,VWS V14.01,2013-10-05 12:41:00,
2013-10-05 05:46:00,52.8,26.6,30.04,East,96,0.0,0.0,36,0.00,,---,0.00,VWS V14.01,2013-10-05 12:46:00,
2013-10-05 05:51:00,52.8,27.3,30.04,East,97,0.0,0.0,37,0.00,,---,0.00,VWS V14.01,2013-10-05 12:51:00,
2013-10-05 05:56:00,52.7,28.5,30.04,East,96,0.0,0.0,39,0.00,,---,0.00,VWS V14.01,2013-10-05 12:56:00,
2013-10-05 06:01:00,52.6,27.7,30.04,East,94,0.0,0.0,38,0.00,,---,0.00,VWS V14.01,2013-10-05 13:01:00,
2013-10-05 06:06:00,52.4,28.8,30.04,ENE,78,0.0,0.0,40,0.00,,---,0.00,VWS V14.01,2013-10-05 13:06:00,
2013-10-05 06:11:00,52.3,26.8,30.04,East,82,0.0,0.0,37,0.00,,---,0.00,VWS V14.01,2013-10-05 13:11:00,
2013-10-05 06:16:00,52.2,29.2,30.04,ESE,111,0.0,0.0,41,0.00,,---,0.00,VWS V14.01,2013-10-05 13:16:00,
2013-10-05 06:21:00,52.1,26.6,30.04,East,98,0.0,0.0,37,0.00,,---,0.00,VWS V14.01,2013-10-05 13:21:00,
2013-10-05 06:26:00,51.9,26.5,30.04,East,98,0.0,0.0,37,0.00,,---,0.00,VWS V14.01,2013-10-05 13:26:00,
2013-10-05 06:31:00,51.8,27.6,30.05,East,94,0.0,0.0,39,0.00,,---,0.00,VWS V14.01,2013-10-05 13:31:00,
2013-10-05 06:36:00,51.7,28.2,30.05,ESE,103,4.0,0.0,40,0.00,,---,0.00,VWS V14.01,2013-10-05 13:36:00,
2013-10-05 06:42:00,51.6,27.5,30.05,East,96,0.0,0.0,39,0.00,,---,0.00,VWS V14.01,2013-10-05 13:42:00,
2013-10-05 06:47:00,51.6,26.8,30.05,East,94,0.0,0.0,38,0.00,,---,0.00,VWS V14.01,2013-10-05 13:47:00,
2013-10-05 06:52:00,51.7,27.6,30.05,ESE,105,1.0,0.0,39,0.00,,---,0.00,VWS V14.01,2013-10-05 13:52:00,
2013-10-05 06:57:00,51.6,26.8,30.05,ENE,76,2.0,0.0,38,0.00,,---,0.00,VWS V14.01,2013-10-05 13:57:00,
2013-10-05 07:02:00,51.6,26.2,30.05,East,90,2.0,0.0,37,0.00,,---,0.00,VWS V14.01,2013-10-05 14:02:00,
2013-10-05 07:07:00,51.7,25.6,30.06,East,97,4.0,0.0,36,0.00,,---,0.00,VWS V14.01,2013-10-05 14:07:00,
2013-10-05 07:12:00,52.1,25.3,30.06,ESE,107,0.0,0.0,35,0.00,,---,0.00,VWS V14.01,2013-10-05 14:12:00,
2013-10-05 07:17:00,52.4,25.6,30.06,East,97,0.0,0.0,35,0.00,,---,0.00,VWS V14.01,2013-10-05 14:17:00,
2013-10-05 07:22:00,52.5,25.7,30.06,East,88,0.0,0.0,35,0.00,,---,0.00,VWS V14.01,2013-10-05 14:22:00,
2013-10-05 07:27:00,52.5,26.3,30.06,ESE,111,0.0,0.0,36,0.00,,---,0.00,VWS V14.01,2013-10-05 14:27:00,
2013-10-05 07:32:00,52.4,26.9,30.07,ESE,108,0.0,0.0,37,0.00,,---,0.00,VWS V14.01,2013-10-05 14:32:00,
2013-10-05 07:37:00,52.3,26.8,30.07,East,90,0.0,0.0,37,0.00,,---,0.00,VWS V14.01,2013-10-05 14:37:00,
2013-10-05 07:42:00,52.3,26.8,30.07,East,95,0.0,0.0,37,0.00,,---,0.00,VWS V14.01,2013-10-05 14:42:00,
2013-10-05 07:47:00,52.2,26.7,30.07,ESE,106,0.0,0.0,37,0.00,,---,0.00,VWS V14.01,2013-10-05 14:47:00,
2013-10-05 07:52:00,52.3,26.8,30.07,East,101,0.0,0.0,37,0.00,,---,0.00,VWS V14.01,2013-10-05 14:52:00,
2013-10-05 07:57:00,52.3,26.2,30.07,ESE,105,0.0,0.0,36,0.00,,---,0.00,VWS V14.01,2013-10-05 14:57:00,
2013-10-05 08:02:00,52.3,26.2,30.07,East,86,1.0,0.0,36,0.00,,---,0.00,VWS V14.01,2013-10-05 15:02:00,
2013-10-05 08:07:00,52.4,26.9,30.07,East,90,2.0,0.0,37,0.00,,---,0.00,VWS V14.01,2013-10-05 15:07:00,
2013-10-05 08:12:00,52.5,27.0,30.07,East,88,1.0,0.0,37,0.00,,---,0.00,VWS V14.01,2013-10-05 15:12:00,
2013-10-05 08:17:00,52.7,26.5,30.07,East,84,1.0,0.0,36,0.00,,---,0.00,VWS V14.01,2013-10-05 15:17:00,
2013-10-05 08:22:00,53.1,26.2,30.08,East,98,0.0,0.0,35,0.00,,---,0.00,VWS V14.01,2013-10-05 15:22:00,
2013-10-05 08:27:00,53.4,27.1,30.08,East,91,0.0,0.0,36,0.00,,---,0.00,VWS V14.01,2013-10-05 15:27:00,
2013-10-05 08:32:00,53.7,27.4,30.08,NE,46,0.0,0.0,36,0.00,,---,0.00,VWS V14.01,2013-10-05 15:32:00,
2013-10-05 08:37:00,54.1,27.1,30.08,East,82,0.0,0.0,35,0.00,,---,0.00,VWS V14.01,2013-10-05 15:37:00,
2013-10-05 08:42:00,54.5,29.4,30.08,East,92,0.0,0.0,38,0.00,,---,0.00,VWS V14.01,2013-10-05 15:42:00,
2013-10-05 08:47:00,54.9,29.1,30.08,NW,306,0.0,0.0,37,0.00,,---,0.00,VWS V14.01,2013-10-05 15:47:00,
2013-10-05 08:52:00,55.3,28.8,30.08,NW,306,0.0,0.0,36,0.00,,---,0.00,VWS V14.01,2013-10-05 15:52:00,
2013-10-05 08:57:00,55.6,30.4,30.08,NE,45,0.0,0.0,38,0.00,,---,0.00,VWS V14.01,2013-10-05 15:57:00,
2013-10-05 09:02:00,55.9,29.4,30.09,NE,44,0.0,0.0,36,0.00,,---,0.00,VWS V14.01,2013-10-05 16:02:00,
2013-10-05 09:07:00,56.3,29.0,30.09,NE,49,1.0,0.0,35,0.00,,---,0.00,VWS V14.01,2013-10-05 16:07:00,
2013-10-05 09:12:00,57.0,28.2,30.09,East,91,2.0,0.0,33,0.00,,---,0.00,VWS V14.01,2013-10-05 16:12:00,
2013-10-05 09:17:00,57.9,28.2,30.09,East,95,0.0,0.0,32,0.00,,---,0.00,VWS V14.01,2013-10-05 16:17:00,
2013-10-05 09:22:00,58.7,29.7,30.09,East,86,1.0,0.0,33,0.00,,---,0.00,VWS V14.01,2013-10-05 16:22:00,
2013-10-05 09:27:00,59.3,31.0,30.09,East,85,0.0,0.0,34,0.00,,---,0.00,VWS V14.01,2013-10-05 16:27:00,
2013-10-05 09:32:00,60.0,32.3,30.09,East,95,0.0,0.0,35,0.00,,---,0.00,VWS V14.01,2013-10-05 16:32:00,
2013-10-05 09:38:00,60.7,28.3,30.09,East,97,0.0,0.0,29,0.00,,---,0.00,VWS V14.01,2013-10-05 16:38:00,
2013-10-05 09:43:00,61.5,29.0,30.09,East,97,0.0,0.0,29,0.00,,---,0.00,VWS V14.01,2013-10-05 16:43:00,
2013-10-05 09:48:00,62.2,33.5,30.09,East,98,0.0,0.0,34,0.00,,---,0.00,VWS V14.01,2013-10-05 16:48:00,
2013-10-05 09:53:00,62.8,29.2,30.09,East,97,0.0,0.0,28,0.00,,---,0.00,VWS V14.01,2013-10-05 16:53:00,
2013-10-05 09:58:00,63.5,29.8,30.09,East,97,0.0,0.0,28,0.00,,---,0.00,VWS V14.01,2013-10-05 16:58:00,
2013-10-05 10:03:00,64.1,32.9,30.09,ENE,74,1.0,0.0,31,0.00,,---,0.00,VWS V14.01,2013-10-05 17:03:00,
2013-10-05 10:08:00,64.9,31.9,30.09,ENE,76,0.0,0.0,29,0.00,,---,0.00,VWS V14.01,2013-10-05 17:08:00,
2013-10-05 10:13:00,65.6,32.5,30.09,ENE,76,0.0,0.0,29,0.00,,---,0.00,VWS V14.01,2013-10-05 17:13:00,
2013-10-05 10:18:00,66.4,31.4,30.09,NW,313,0.0,0.0,27,0.00,,---,0.00,VWS V14.01,2013-10-05 17:18:00,
2013-10-05 10:23:00,67.7,31.6,30.09,WNW,282,0.0,0.0,26,0.00,,---,0.00,VWS V14.01,2013-10-05 17:23:00,
2013-10-05 10:28:00,68.8,32.5,30.09,NNE,13,0.0,0.0,26,0.00,,---,0.00,VWS V14.01,2013-10-05 17:28:00,
2013-10-05 10:33:00,69.6,30.2,30.09,NE,54,0.0,0.0,23,0.00,,---,0.00,VWS V14.01,2013-10-05 17:33:00,
2013-10-05 10:38:00,70.2,31.8,30.09,NE,55,0.0,0.0,24,0.00,,---,0.00,VWS V14.01,2013-10-05 17:38:00,
2013-10-05 10:43:00,71.0,33.4,30.09,NNE,30,0.0,0.0,25,0.00,,---,0.00,VWS V14.01,2013-10-05 17:43:00,
2013-10-05 10:48:00,71.6,31.9,30.09,ENE,75,0.0,0.0,23,0.00,,---,0.00,VWS V14.01,2013-10-05 17:48:00,
2013-10-05 10:53:00,72.4,32.5,30.10,ENE,74,0.0,0.0,23,0.00,,---,0.00,VWS V14.01,2013-10-05 17:53:00,
2013-10-05 10:58:00,73.0,32.0,30.09,East,82,0.0,0.0,22,0.00,,---,0.00,VWS V14.01,2013-10-05 17:58:00,
2013-10-05 11:03:00,73.3,29.8,30.10,East,79,0.0,0.0,20,0.00,,---,0.00,VWS V14.01,2013-10-05 18:03:00,
2013-10-05 11:08:00,73.6,30.1,30.09,East,92,0.0,0.0,20,0.00,,---,0.00,VWS V14.01,2013-10-05 18:08:00,
2013-10-05 11:13:00,74.1,31.7,30.09,ENE,59,1.0,0.0,21,0.00,,---,0.00,VWS V14.01,2013-10-05 18:13:00,
2013-10-05 11:18:00,74.8,32.3,30.09,West,281,1.0,0.0,21,0.00,,---,0.00,VWS V14.01,2013-10-05 18:18:00,
2013-10-05 11:23:00,75.2,32.6,30.09,WNW,290,1.0,0.0,21,0.00,,---,0.00,VWS V14.01,2013-10-05 18:23:00,
2013-10-05 11:28:00,75.6,34.1,30.09,NW,307,0.0,0.0,22,0.00,,---,0.00,VWS V14.01,2013-10-05 18:28:00,
2013-10-05 11:33:00,76.2,32.2,30.09,NNE,33,0.0,0.0,20,0.00,,---,0.00,VWS V14.01,2013-10-05 18:33:00,
2013-10-05 11:38:00,76.7,32.7,30.09,NE,54,1.0,0.0,20,0.00,,---,0.00,VWS V14.01,2013-10-05 18:38:00,
2013-10-05 11:43:00,77.0,32.9,30.09,NNE,30,0.0,0.0,20,0.00,,---,0.00,VWS V14.01,2013-10-05 18:43:00,
2013-10-05 11:48:00,77.3,34.4,30.09,North,355,0.0,0.0,21,0.00,,---,0.00,VWS V14.01,2013-10-05 18:48:00,
2013-10-05 11:53:00,77.5,32.0,30.09,WNW,295,1.0,0.0,19,0.00,,---,0.00,VWS V14.01,2013-10-05 18:53:00,
2013-10-05 11:58:00,77.7,34.7,30.09,NNW,331,0.0,0.0,21,0.00,,---,0.00,VWS V14.01,2013-10-05 18:58:00,
2013-10-05 12:03:00,77.9,33.6,30.09,North,9,0.0,0.0,20,0.00,,---,0.00,VWS V14.01,2013-10-05 19:03:00,
2013-10-05 12:08:00,78.2,35.1,30.09,WNW,293,0.0,0.0,21,0.00,,---,0.00,VWS V14.01,2013-10-05 19:08:00,
2013-10-05 12:13:00,78.3,32.7,30.09,NE,41,0.0,0.0,19,0.00,,---,0.00,VWS V14.01,2013-10-05 19:13:00,
2013-10-05 12:18:00,78.7,34.3,30.09,West,281,3.0,0.0,20,0.00,,---,0.00,VWS V14.01,2013-10-05 19:18:00,
2013-10-05 12:24:00,78.6,34.2,30.09,NNW,342,0.0,0.0,20,0.00,,---,0.00,VWS V14.01,2013-10-05 19:24:00,
2013-10-05 12:29:00,78.7,35.5,30.08,NE,44,0.0,0.0,21,0.00,,---,0.00,VWS V14.01,2013-10-05 19:29:00,
2013-10-05 12:34:00,78.6,34.2,30.08,SSE,154,0.0,0.0,20,0.00,,---,0.00,VWS V14.01,2013-10-05 19:34:00,
2013-10-05 12:39:00,79.0,35.8,30.08,NNE,27,1.0,0.0,21,0.00,,---,0.00,VWS V14.01,2013-10-05 19:39:00,
2013-10-05 12:44:00,79.6,36.3,30.08,North,355,0.0,0.0,21,0.00,,---,0.00,VWS V14.01,2013-10-05 19:44:00,
2013-10-05 12:49:00,79.8,36.4,30.08,NNW,348,0.0,0.0,21,0.00,,---,0.00,VWS V14.01,2013-10-05 19:49:00,
2013-10-05 12:54:00,79.9,35.3,30.08,NE,46,2.0,0.0,20,0.00,,---,0.00,VWS V14.01,2013-10-05 19:54:00,
2013-10-05 12:59:00,79.7,35.1,30.07,NE,45,1.0,0.0,20,0.00,,---,0.00,VWS V14.01,2013-10-05 19:59:00,
2013-10-05 13:04:00,79.6,35.0,30.07,East,81,0.0,0.0,20,0.00,,---,0.00,VWS V14.01,2013-10-05 20:04:00,
2013-10-05 13:09:00,79.8,33.9,30.07,NNE,31,1.0,0.0,19,0.00,,---,0.00,VWS V14.01,2013-10-05 20:09:00,
2013-10-05 13:14:00,80.1,35.5,30.07,East,84,0.0,0.0,20,0.00,,---,0.00,VWS V14.01,2013-10-05 20:14:00,
2013-10-05 13:19:00,80.5,34.5,30.07,NE,52,0.0,0.0,19,0.00,,---,0.00,VWS V14.01,2013-10-05 20:19:00,
2013-10-05 13:24:00,80.6,35.9,30.06,NNW,348,1.0,0.0,20,0.00,,---,0.00,VWS V14.01,2013-10-05 20:24:00,
2013-10-05 13:29:00,80.8,34.7,30.06,NNW,342,0.0,0.0,19,0.00,,---,0.00,VWS V14.01,2013-10-05 20:29:00,
2013-10-05 13:34:00,81.1,36.3,30.06,North,350,1.0,0.0,20,0.00,,---,0.00,VWS V14.01,2013-10-05 20:34:00,
2013-10-05 13:39:00,81.4,32.5,30.06,ENE,66,1.0,0.0,17,0.00,,---,0.00,VWS V14.01,2013-10-05 20:39:00,
2013-10-05 13:44:00,81.4,32.5,30.05,WSW,257,3.0,0.0,17,0.00,,---,0.00,VWS V14.01,2013-10-05 20:44:00,
2013-10-05 13:49:00,81.5,35.3,30.05,NNE,16,0.0,0.0,19,0.00,,---,0.00,VWS V14.01,2013-10-05 20:49:00,
2013-10-05 13:54:00,81.9,32.8,30.05,ESE,102,2.0,0.0,17,0.00,,---,0.00,VWS V14.01,2013-10-05 20:54:00,
2013-10-05 13:59:00,81.5,32.5,30.05,NE,34,0.0,0.0,17,0.00,,---,0.00,VWS V14.01,2013-10-05 20:59:00,
2013-10-05 14:04:00,82.1,34.4,30.05,NW,325,1.0,0.0,18,0.00,,---,0.00,VWS V14.01,2013-10-05 21:04:00,
2013-10-05 14:09:00,82.7,30.4,30.04,East,98,1.0,0.0,15,0.00,,---,0.00,VWS V14.01,2013-10-05 21:09:00,
2013-10-05 14:14:00,82.7,32.0,30.04,East,85,1.0,0.0,16,0.00,,---,0.00,VWS V14.01,2013-10-05 21:14:00,
2013-10-05 14:19:00,82.8,32.1,30.04,West,259,1.0,0.0,16,0.00,,---,0.00,VWS V14.01,2013-10-05 21:19:00,
2013-10-05 14:24:00,82.9,33.7,30.04,West,267,0.0,0.0,17,0.00,,---,0.00,VWS V14.01,2013-10-05 21:24:00,
2013-10-05 14:29:00,83.0,33.7,30.04,East,82,0.0,0.0,17,0.00,,---,0.00,VWS V14.01,2013-10-05 21:29:00,
2013-10-05 14:34:00,83.3,32.5,30.04,ENE,66,1.0,0.0,16,0.00,,---,0.00,VWS V14.01,2013-10-05 21:34:00,
2013-10-05 14:39:00,83.5,34.1,30.04,East,100,4.0,0.0,17,0.00,,---,0.00,VWS V14.01,2013-10-05 21:39:00,
2013-10-05 14:44:00,83.9,33.0,30.04,NNE,28,1.0,0.0,16,0.00,,---,0.00,VWS V14.01,2013-10-05 21:44:00,
2013-10-05 14:49:00,84.6,35.0,30.04,NE,39,1.0,0.0,17,0.00,,---,0.00,VWS V14.01,2013-10-05 21:49:00,
2013-10-05 14:54:00,84.9,33.8,30.04,North,351,3.0,0.0,16,0.00,,---,0.00,VWS V14.01,2013-10-05 21:54:00,
2013-10-05 14:59:00,84.5,35.0,30.04,ENE,61,1.0,0.0,17,0.00,,---,0.00,VWS V14.01,2013-10-05 21:59:00,
2013-10-05 15:04:00,84.3,33.3,30.04,NNE,27,2.0,0.0,16,0.00,,---,0.00,VWS V14.01,2013-10-05 22:04:00,
2013-10-05 15:09:00,84.3,33.3,30.04,NNE,22,0.0,0.0,16,0.00,,---,0.00,VWS V14.01,2013-10-05 22:09:00,
2013-10-05 15:14:00,84.4,36.3,30.03,East,90,1.0,0.0,18,0.00,,---,0.00,VWS V14.01,2013-10-05 22:14:00,
2013-10-05 15:20:00,83.9,34.5,30.03,NNE,19,0.0,0.0,17,0.00,,---,0.00,VWS V14.01,2013-10-05 22:20:00,
2013-10-05 15:25:00,83.8,32.9,30.04,NNE,23,1.0,0.0,16,0.00,,---,0.00,VWS V14.01,2013-10-05 22:25:00,
2013-10-05 15:30:00,84.0,34.5,30.03,NE,53,1.0,0.0,17,0.00,,---,0.00,VWS V14.01,2013-10-05 22:30:00,
2013-10-05 15:35:00,83.6,34.2,30.03,NNE,17,0.0,0.0,17,0.00,,---,0.00,VWS V14.01,2013-10-05 22:35:00,
2013-10-05 15:40:00,83.1,33.8,30.03,NW,321,1.0,0.0,17,0.00,,---,0.00,VWS V14.01,2013-10-05 22:40:00,
2013-10-05 15:45:00,82.7,32.0,30.03,ENE,74,3.0,0.0,16,0.00,,---,0.00,VWS V14.01,2013-10-05 22:45:00,
2013-10-05 15:50:00,82.1,33.0,30.03,East,82,0.0,0.0,17,0.00,,---,0.00,VWS V14.01,2013-10-05 22:50:00,
2013-10-05 15:55:00,82.0,32.9,30.03,NE,40,1.0,0.0,17,0.00,,---,0.00,VWS V14.01,2013-10-05 22:55:00,
2013-10-05 16:00:00,82.0,32.9,30.03,East,99,1.0,0.0,17,0.00,,---,0.00,VWS V14.01,2013-10-05 23:00:00,
2013-10-05 16:05:00,81.8,31.3,30.02,SW,227,0.0,0.0,16,0.00,,---,0.00,VWS V14.01,2013-10-05 23:05:00,
2013-10-05 16:10:00,81.6,31.1,30.02,NE,40,4.0,0.0,16,0.00,,---,0.00,VWS V14.01,2013-10-05 23:10:00,
2013-10-05 16:15:00,81.4,31.0,30.02,NE,42,0.0,0.0,16,0.00,,---,0.00,VWS V14.01,2013-10-05 23:15:00,
2013-10-05 16:20:00,81.3,30.9,30.02,NE,55,2.0,0.0,16,0.00,,---,0.00,VWS V14.01,2013-10-05 23:20:00,
2013-10-05 16:25:00,81.2,32.3,30.02,NNE,26,0.0,0.0,17,0.00,,---,0.00,VWS V14.01,2013-10-05 23:25:00,
2013-10-05 16:30:00,81.0,30.6,30.02,NE,56,1.0,0.0,16,0.00,,---,0.00,VWS V14.01,2013-10-05 23:30:00,
2013-10-05 16:35:00,80.9,32.0,30.02,North,5,2.0,0.0,17,0.00,,---,0.00,VWS V14.01,2013-10-05 23:35:00,
2013-10-05 16:40:00,80.7,30.4,30.02,NNE,20,0.0,0.0,16,0.00,,---,0.00,VWS V14.01,2013-10-05 23:40:00,
2013-10-05 16:45:00,80.2,30.0,30.02,East,98,0.0,0.0,16,0.00,,---,0.00,VWS V14.01,2013-10-05 23:45:00,
2013-10-05 16:50:00,80.0,31.3,30.02,North,360,0.0,0.0,17,0.00,,---,0.00,VWS V14.01,2013-10-05 23:50:00,
2013-10-05 16:55:00,79.9,29.7,30.02,NNE,30,0.0,0.0,16,0.00,,---,0.00,VWS V14.01,2013-10-05 23:55:00,
2013-10-05 17:00:00,79.8,29.7,30.01,East,93,2.0,0.0,16,0.00,,---,0.00,VWS V14.01,2013-10-06 00:00:00,
2013-10-05 17:05:00,79.5,29.4,30.02,East,96,4.0,0.0,16,0.00,,---,0.00,VWS V14.01,2013-10-06 00:05:00,
2013-10-05 17:10:00,79.3,29.3,30.02,East,83,1.0,0.0,16,0.00,,---,0.00,VWS V14.01,2013-10-06 00:10:00,
2013-10-05 17:15:00,79.2,29.2,30.02,ENE,59,0.0,0.0,16,0.00,,---,0.00,VWS V14.01,2013-10-06 00:15:00,
2013-10-05 17:20:00,79.2,30.7,30.02,NW,317,0.0,0.0,17,0.00,,---,0.00,VWS V14.01,2013-10-06 00:20:00,
2013-10-05 17:26:00,79.1,29.1,30.02,NE,38,0.0,0.0,16,0.00,,---,0.00,VWS V14.01,2013-10-06 00:26:00,
2013-10-05 17:31:00,78.9,28.9,30.02,NE,52,0.0,0.0,16,0.00,,---,0.00,VWS V14.01,2013-10-06 00:31:00,
2013-10-05 17:36:00,78.8,31.8,30.02,ENE,57,0.0,0.0,18,0.00,,---,0.00,VWS V14.01,2013-10-06 00:36:00,
2013-10-05 17:41:00,78.7,30.3,30.01,NE,34,0.0,0.0,17,0.00,,---,0.00,VWS V14.01,2013-10-06 00:41:00,
2013-10-05 17:46:00,78.6,30.2,30.02,NE,34,0.0,0.0,17,0.00,,---,0.00,VWS V14.01,2013-10-06 00:46:00,
2013-10-05 17:51:00,78.4,32.8,30.02,NE,35,0.0,0.0,19,0.00,,---,0.00,VWS V14.01,2013-10-06 00:51:00,
2013-10-05 17:56:00,78.2,33.9,30.01,NE,35,0.0,0.0,20,0.00,,---,0.00,VWS V14.01,2013-10-06 00:56:00,
2013-10-05 18:01:00,78.0,32.4,30.01,NE,35,0.0,0.0,19,0.00,,---,0.00,VWS V14.01,2013-10-06 01:01:00,
2013-10-05 18:06:00,77.8,34.8,30.02,NE,37,0.0,0.0,21,0.00,,---,0.00,VWS V14.01,2013-10-06 01:06:00,
2013-10-05 18:11:00,77.4,32.0,30.02,NE,36,0.0,0.0,19,0.00,,---,0.00,VWS V14.01,2013-10-06 01:11:00,
2013-10-05 18:16:00,77.1,34.2,30.02,NE,35,0.0,0.0,21,0.00,,---,0.00,VWS V14.01,2013-10-06 01:16:00,
2013-10-05 18:21:00,76.7,33.9,30.02,NE,36,0.0,0.0,21,0.00,,---,0.00,VWS V14.01,2013-10-06 01:21:00,
2013-10-05 18:26:00,76.1,34.5,30.01,NE,36,0.0,0.0,22,0.00,,---,0.00,VWS V14.01,2013-10-06 01:26:00,
2013-10-05 18:31:00,75.5,36.2,30.01,NE,36,0.0,0.0,24,0.00,,---,0.00,VWS V14.01,2013-10-06 01:31:00,
2013-10-05 18:36:00,74.7,36.6,30.01,NE,36,0.0,0.0,25,0.00,,---,0.00,VWS V14.01,2013-10-06 01:36:00,
2013-10-05 18:41:00,73.9,35.9,30.01,NE,37,0.0,0.0,25,0.00,,---,0.00,VWS V14.01,2013-10-06 01:41:00,
2013-10-05 18:46:00,73.2,36.3,30.02,NE,35,0.0,0.0,26,0.00,,---,0.00,VWS V14.01,2013-10-06 01:46:00,
2013-10-05 18:51:00,72.5,35.7,30.02,NE,34,0.0,0.0,26,0.00,,---,0.00,VWS V14.01,2013-10-06 01:51:00,
2013-10-05 18:56:00,71.8,35.1,30.02,NE,37,0.0,0.0,26,0.00,,---,0.00,VWS V14.01,2013-10-06 01:56:00,
2013-10-05 19:01:00,71.2,35.5,30.02,NE,36,0.0,0.0,27,0.00,,---,0.00,VWS V14.01,2013-10-06 02:01:00,
2013-10-05 19:06:00,70.8,35.2,30.02,NE,35,0.0,0.0,27,0.00,,---,0.00,VWS V14.01,2013-10-06 02:06:00,
2013-10-05 19:11:00,70.5,34.0,30.02,NE,36,0.0,0.0,26,0.00,,---,0.00,VWS V14.01,2013-10-06 02:11:00,
2013-10-05 19:16:00,70.4,33.9,30.02,NE,36,0.0,0.0,26,0.00,,---,0.00,VWS V14.01,2013-10-06 02:16:00,
2013-10-05 19:21:00,70.1,34.6,30.02,NE,36,0.0,0.0,27,0.00,,---,0.00,VWS V14.01,2013-10-06 02:21:00,
2013-10-05 19:26:00,69.9,34.4,30.01,NE,36,0.0,0.0,27,0.00,,---,0.00,VWS V14.01,2013-10-06 02:26:00,
2013-10-05 19:31:00,69.7,33.3,30.01,NE,36,0.0,0.0,26,0.00,,---,0.00,VWS V14.01,2013-10-06 02:31:00,
2013-10-05 19:36:00,69.6,33.2,30.01,NE,36,0.0,0.0,26,0.00,,---,0.00,VWS V14.01,2013-10-06 02:36:00,
2013-10-05 19:41:00,69.5,33.1,30.01,NE,36,0.0,0.0,26,0.00,,---,0.00,VWS V14.01,2013-10-06 02:41:00,
2013-10-05 19:46:00,69.3,33.9,30.01,NE,37,0.0,0.0,27,0.00,,---,0.00,VWS V14.01,2013-10-06 02:46:00,
2013-10-05 19:51:00,68.9,34.5,30.01,NE,36,0.0,0.0,28,0.00,,---,0.00,VWS V14.01,2013-10-06 02:51:00,
2013-10-05 19:56:00,68.5,33.2,30.01,NE,36,0.0,0.0,27,0.00,,---,0.00,VWS V14.01,2013-10-06 02:56:00,
2013-10-05 20:01:00,68.2,33.0,30.01,NE,36,0.0,0.0,27,0.00,,---,0.00,VWS V14.01,2013-10-06 03:01:00,
2013-10-05 20:06:00,67.9,32.7,30.01,NE,36,0.0,0.0,27,0.00,,---,0.00,VWS V14.01,2013-10-06 03:06:00,
2013-10-05 20:11:00,67.6,33.4,30.01,NE,35,0.0,0.0,28,0.00,,---,0.00,VWS V14.01,2013-10-06 03:11:00,
2013-10-05 20:16:00,67.3,34.0,30.01,NE,35,0.0,0.0,29,0.00,,---,0.00,VWS V14.01,2013-10-06 03:16:00,
2013-10-05 20:22:00,67.0,33.7,30.01,NE,36,0.0,0.0,29,0.00,,---,0.00,VWS V14.01,2013-10-06 03:22:00,
2013-10-05 20:27:00,66.7,33.5,30.01,NE,35,0.0,0.0,29,0.00,,---,0.00,VWS V14.01,2013-10-06 03:27:00,
2013-10-05 20:32:00,66.5,34.1,30.01,NE,37,0.0,0.0,30,0.00,,---,0.00,VWS V14.01,2013-10-06 03:32:00,
2013-10-05 20:37:00,66.2,34.7,30.01,East,80,0.0,0.0,31,0.00,,---,0.00,VWS V14.01,2013-10-06 03:37:00,
2013-10-05 20:42:00,65.9,33.6,30.01,East,82,0.0,0.0,30,0.00,,---,0.00,VWS V14.01,2013-10-06 03:42:00,
2013-10-05 20:47:00,65.5,33.3,30.01,East,80,0.0,0.0,30,0.00,,---,0.00,VWS V14.01,2013-10-06 03:47:00,
2013-10-05 20:52:00,65.3,33.9,30.01,ENE,60,0.0,0.0,31,0.00,,---,0.00,VWS V14.01,2013-10-06 03:52:00,
2013-10-05 20:57:00,64.9,32.8,30.01,ENE,59,0.0,0.0,30,0.00,,---,0.00,VWS V14.01,2013-10-06 03:57:00,
2013-10-05 21:01:00,64.7,33.4,30.01,ENE,59,0.0,0.0,31,0.00,,---,0.00,VWS V14.01,2013-10-06 04:01:00,
2013-10-05 21:02:00,64.6,34.1,30.01,ENE,59,0.0,0.0,32,0.00,,---,0.00,VWS V14.01,2013-10-06 04:02:00,
2013-10-05 21:05:00,64.5,34.0,30.01,NE,36,0.0,0.0,32,0.00,,---,0.00,VWS V14.01,2013-10-06 04:05:00,
2013-10-05 21:10:00,64.2,33.8,30.01,NNE,32,0.0,0.0,32,0.00,,---,0.00,VWS V14.01,2013-10-06 04:10:00,
2013-10-05 21:15:00,64.0,33.6,30.01,NNE,29,0.0,0.0,32,0.00,,---,0.00,VWS V14.01,2013-10-06 04:15:00,
2013-10-05 21:20:00,63.7,33.3,30.01,NNE,30,0.0,0.0,32,0.00,,---,0.00,VWS V14.01,2013-10-06 04:20:00,
2013-10-05 21:25:00,63.5,33.9,30.01,NNW,342,0.0,0.0,33,0.00,,---,0.00,VWS V14.01,2013-10-06 04:25:00,
2013-10-05 21:30:00,63.3,33.7,30.02,ESE,107,0.0,0.0,33,0.00,,---,0.00,VWS V14.01,2013-10-06 04:30:00,
2013-10-05 21:35:00,63.1,33.6,30.02,ESE,107,0.0,0.0,33,0.00,,---,0.00,VWS V14.01,2013-10-06 04:35:00,
2013-10-05 21:40:00,63.1,33.6,30.02,ESE,106,0.0,0.0,33,0.00,,---,0.00,VWS V14.01,2013-10-06 04:40:00,
2013-10-05 21:45:00,63.0,33.5,30.02,ESE,107,0.0,0.0,33,0.00,,---,0.00,VWS V14.01,2013-10-06 04:45:00,
2013-10-05 21:50:00,62.9,34.1,30.02,ESE,107,0.0,0.0,34,0.00,,---,0.00,VWS V14.01,2013-10-06 04:50:00,
2013-10-05 21:55:00,62.7,33.2,30.02,ESE,107,0.0,0.0,33,0.00,,---,0.00,VWS V14.01,2013-10-06 04:55:00,
2013-10-05 22:00:00,62.6,33.1,30.02,ESE,107,0.0,0.0,33,0.00,,---,0.00,VWS V14.01,2013-10-06 05:00:00,
2013-10-05 22:05:00,62.4,33.7,30.02,ESE,105,0.0,0.0,34,0.00,,---,0.00,VWS V14.01,2013-10-06 05:05:00,
2013-10-05 22:10:00,62.2,33.5,30.02,ESE,105,0.0,0.0,34,0.00,,---,0.00,VWS V14.01,2013-10-06 05:10:00,
2013-10-05 22:15:00,62.2,33.5,30.02,ESE,107,0.0,0.0,34,0.00,,---,0.00,VWS V14.01,2013-10-06 05:15:00,
2013-10-05 22:20:00,62.0,33.3,30.02,ESE,107,0.0,0.0,34,0.00,,---,0.00,VWS V14.01,2013-10-06 05:20:00,
2013-10-05 22:25:00,61.9,34.0,30.02,ESE,105,0.0,0.0,35,0.00,,---,0.00,VWS V14.01,2013-10-06 05:25:00,
2013-10-05 22:30:00,61.7,33.1,30.02,ESE,106,0.0,0.0,34,0.00,,---,0.00,VWS V14.01,2013-10-06 05:30:00,
2013-10-05 22:35:00,61.5,32.9,30.02,ESE,107,0.0,0.0,34,0.00,,---,0.00,VWS V14.01,2013-10-06 05:35:00,
2013-10-05 22:40:00,61.4,33.5,30.02,ESE,108,0.0,0.0,35,0.00,,---,0.00,VWS V14.01,2013-10-06 05:40:00,
2013-10-05 22:45:00,61.3,34.1,30.02,ESE,107,0.0,0.0,36,0.00,,---,0.00,VWS V14.01,2013-10-06 05:45:00,
2013-10-05 22:50:00,61.4,33.5,30.02,ESE,108,0.0,0.0,35,0.00,,---,0.00,VWS V14.01,2013-10-06 05:50:00,
2013-10-05 22:55:00,61.3,33.4,30.02,ESE,107,0.0,0.0,35,0.00,,---,0.00,VWS V14.01,2013-10-06 05:55:00,
2013-10-05 23:00:00,61.2,33.3,30.02,ESE,107,0.0,0.0,35,0.00,,---,0.00,VWS V14.01,2013-10-06 06:00:00,
2013-10-05 23:06:00,61.2,33.3,30.02,ESE,107,0.0,0.0,35,0.00,,---,0.00,VWS V14.01,2013-10-06 06:06:00,
2013-10-05 23:11:00,61.1,34.0,30.02,ESE,108,0.0,0.0,36,0.00,,---,0.00,VWS V14.01,2013-10-06 06:11:00,
2013-10-05 23:16:00,61.1,34.7,30.02,ESE,106,0.0,0.0,37,0.00,,---,0.00,VWS V14.01,2013-10-06 06:16:00,
2013-10-05 23:21:00,61.0,34.6,30.02,East,96,0.0,0.0,37,0.00,,---,0.00,VWS V14.01,2013-10-06 06:21:00,
2013-10-05 23:26:00,61.0,33.9,30.02,East,97,0.0,0.0,36,0.00,,---,0.00,VWS V14.01,2013-10-06 06:26:00,
2013-10-05 23:31:00,61.0,33.9,30.02,East,98,0.0,0.0,36,0.00,,---,0.00,VWS V14.01,2013-10-06 06:31:00,
2013-10-05 23:36:00,61.1,34.0,30.02,East,93,1.0,0.0,36,0.00,,---,0.00,VWS V14.01,2013-10-06 06:36:00,
2013-10-05 23:41:00,61.0,33.9,30.02,East,101,0.0,0.0,36,0.00,,---,0.00,VWS V14.01,2013-10-06 06:41:00,
2013-10-05 23:46:00,60.9,34.5,30.02,NE,50,0.0,0.0,37,0.00,,---,0.00,VWS V14.01,2013-10-06 06:46:00,
2013-10-05 23:51:00,60.7,34.3,30.02,ESE,106,0.0,0.0,37,0.00,,---,0.00,VWS V14.01,2013-10-06 06:51:00,
2013-10-05 23:56:00,60.6,33.5,30.02,East,96,0.0,0.0,36,0.00,,---,0.00,VWS V14.01,2013-10-06 06:56:00,